Regional Weather Roundup
Issued by NWS

Home | Current Version | Previous Version | Graphics & Text | Print | Product List | Glossary On
Versions: 1 2 3 4 5 6 7 8 9 10 11 12 13 14 15 16 17 18 19 20 21 22 23 24 25 26 27 28 29 30 31 32 33 34 35 36 37 38 39 40 41 42 43 44 45 46 47 48 49 50
000
ASUS45 KABQ 050101
RWRNM
NEW MEXICO REGIONAL WEATHER ROUNDUP
NATIONAL WEATHER SERVICE ALBUQUERQUE NM
700 PM MDT TUE AUG 04 2015

NOTE: "FAIR" MEANS FEW OR NO CLOUDS BELOW 12,000 FEET AGL WITH NO
       SIGNIFICANT WEATHER OR OBSTRUCTIONS TO VISION.

      THIS PRODUCT IS RELEASED AS TWO VERSIONS.  ONE VERSION NEAR
      THE TOP OF THE HOUR CONTAINING PRELIMINARY DATA FROM ALBUQUERQUE
      AND OTHER STATIONS.  A FINAL VERSION WITH ADDITIONAL DATA IS
      ISSUED ABOUT 10 MINUTES AFTER THE HOUR.

NMZ501-503-504-510>518-050200-
NORTHWEST PLATEAU/NORTHCENTRAL MOUNTAINS

CITY           SKY/WX    TMP DP  RH WIND       PRES   REMARKS
FARMINGTON     SUNNY     89  38  16 NW9G23    30.11F
LOS ALAMOS     SUNNY     80  36  20 W10       30.27S
SANTA FE       SUNNY     87  36  16 NW12      30.17S
TAOS           PTSUNNY  N/A N/A N/A W15       30.25R
ANGEL FIRE     FAIR      70  44  39 W5        30.35S

$$
NMZ402-403-502-505>509-050200-
WESTCENTRAL MOUNTAINS/SOUTHWEST MOUNTAINS

CITY           SKY/WX    TMP DP  RH WIND       PRES   REMARKS
GALLUP         SUNNY     84  37  18 NW5       30.20F
GRANTS         SUNNY     83  46  26 NW3       30.22F
SILVER CITY      N/A     88  48  25 E3        30.14F

$$
NMZ407-409-411-412-050200-
SOUTHERN DESERTS

CITY           SKY/WX    TMP DP  RH WIND       PRES   REMARKS
LORDSBURG      FAIR      95  41  15 NW10      30.01F
DEMING         MOSUNNY   94  50  22 E6        30.03F
LAS CRUCES     MOSUNNY   91  54  28 CALM      30.05F
HOLLOMAN AFB   SUNNY     96  45  17 N8        29.98F
ALAMOGORDO     SUNNY     95  37  13 W5        30.01S
T OR C         MOSUNNY   90  51  26 SW10      30.06F

$$
NMZ519>523-050200-
CENTRAL VALLEYS/CENTRAL HIGHLANDS

CITY           SKY/WX    TMP DP  RH WIND       PRES   REMARKS
ALBUQUERQUE    MOSUNNY   92  43  18 W7        30.10F
DOUBLE EAGLE   MOSUNNY   88  45  22 W10       30.16S
MORIARTY ARPT    N/A     84  43  23 W10       30.19S
CLINES CORNERS SUNNY     80  46  30 W13       30.23S
BELEN          FAIR      93  34  12 NW8       30.08S
SOCORRO        FAIR      94  37  13 W7        30.05F

$$
NMZ524>526-539-540-050200-
SOUTHCENTRAL MOUNTAINS

CITY           SKY/WX    TMP DP  RH WIND       PRES   REMARKS
RUIDOSO          N/A    N/A N/A N/A MISG        N/A

$$
NMZ527>531-050200-
NORTHEAST HIGHLANDS/NORTHEAST PLAINS

CITY           SKY/WX    TMP DP  RH WIND       PRES   REMARKS
RATON          MOSUNNY   84  45  25 NW7       30.13S
CLAYTON          N/A     87  59  38 S3        30.01

$$
NMZ532>537-050200-
EASTCENTRAL PLAINS

CITY           SKY/WX    TMP DP  RH WIND       PRES   REMARKS
TUCUMCARI      CLEAR     89  60  37 S8        29.94S
CANNON AFB     CLEAR     92  55  28 SW2       30.01R
CLOVIS AIRPORT CLEAR     91  50  24 S5        30.02R

$$
NMZ028-029-538-050200-
SOUTHEAST PLAINS

CITY           SKY/WX    TMP DP  RH WIND       PRES   REMARKS
ROSWELL        SUNNY     99  43  14 N8        29.94S HX  95
ARTESIA        CLEAR     97  50  20 CALM      29.95S
CARLSBAD       CLEAR    100  46  16 E5        29.92F HX  96
HOBBS          CLEAR     90  64  43 CALM      29.98S


$$


USA.gov is the U.S. government's official web portal to all federal, state and local government web resources and services.